Regional Weather Roundup
Issued by NWS

Home | Current Version | Previous Version | Graphics & Text | Print | Product List | Glossary On
Versions: 1 2 3 4 5 6 7 8 9 10 11 12 13 14 15 16 17 18 19 20 21 22 23 24 25 26 27 28 29 30 31 32 33 34 35 36 37 38 39 40 41 42 43 44 45 46 47 48 49 50
000
ASUS43 KFSD 010910
RWRSD

WEATHER ROUNDUP FOR SOUTH DAKOTA
NATIONAL WEATHER SERVICE SIOUX FALLS SD
400 AM CDT WED OCT 01 2014

NOTE: "FAIR" INDICATES FEW OR NO CLOUDS BELOW 12,000 FEET WITH NO
SIGNIFICANT WEATHER AND/OR OBSTRUCTIONS TO VISIBILITY.


SDZ001>005-009-010-012>017-011000-
NORTHWEST AND NORTH CENTRAL SOUTH DAKOTA

CITY           SKY/WX    TMP DP  RH WIND       PRES   REMARKS
BUFFALO          N/A     49  46  90 W14       29.63R
FAITH            N/A     55  48  77 W17       29.66S
MOBRIDGE       PTCLDY    55  51  86 SW6       29.59S
$$

SDZ012>016-024>037-041>051-057-063-072>074-011000-
SOUTHWEST AND SOUTH CENTRAL SOUTH DAKOTA

CITY           SKY/WX    TMP DP  RH WIND       PRES   REMARKS
RAPID CTY ARPT CLOUDY    53  46  77 W6        29.75R
PIERRE         MOCLDY    55  47  74 SW6       29.66S
CUSTER         CLOUDY    42  39  89 SW3       29.82R
ELLSWORTH AFB  CLOUDY    55  47  72 NW9       29.74S
PHILIP         MOCLDY    50  46  86 W7        29.71R
PINE RIDGE     MOCLDY    49  46  90 SW6       29.77S
WINNER         FAIR      54  47  77 W5        29.69S
$$

SDZ004>011-016>023-039-040-011000-
NORTHEAST SOUTH DAKOTA

CITY           SKY/WX    TMP DP  RH WIND       PRES   REMARKS
ABERDEEN       CLEAR     56  50  80 S10       29.65R
WATERTOWN      CLOUDY    61  59  93 S13       29.68S
SISSETON         N/A     62  59  90 SW14      29.63S
$$

SDZ017-020-022-023-036>040-048>070-011000-
SOUTHEAST SOUTH DAKOTA

CITY           SKY/WX    TMP DP  RH WIND       PRES   REMARKS
SIOUX FALLS    CLOUDY    63  60  90 S9        29.72F
HURON          CLOUDY    62  60  93 S6        29.68S
CHAMBERLAIN    MOCLDY    54  50  87 CALM      29.68S
MITCHELL       CLOUDY    63  61  93 S10       29.68F
YANKTON        CLOUDY    64  61  88 S8        29.71S
$$

ABBREVIATIONS USED IN REMARKS
   TC - TEMPERATURE IN CELSIUS
  WCI - WIND CHILL INDEX
   HX - HEAT INDEX
  VSB - VISIBILITY




USA.gov is the U.S. government's official web portal to all federal, state and local government web resources and services.